Regional Weather Roundup
Issued by NWS

Home | Current Version | Previous Version | Text Only | Print | Product List | Glossary On
Versions: 1 2 3 4 5 6 7 8 9 10 11 12 13 14 15 16 17 18 19 20 21 22 23 24 25 26 27 28
000
ASUS45 KTFX 240810
RWRMT
MONTANA REGIONAL WEATHER ROUNDUP
NATIONAL WEATHER SERVICE GREAT FALLS MT
200 AM MDT FRI MAR 24 2017

NOTE: "FAIR" INDICATES FEW OR NO CLOUDS BELOW 12000 FEET WITH NO
SIGNIFICANT WEATHER AND/OR OBSTRUCTIONS TO VISIBILITY.

MTZ001>007-043-240900-
WEST OF THE DIVIDE

CITY           SKY/WX    TMP DP  RH WIND       PRES   REMARKS
KALISPELL      CLEAR     25  23  92 CALM      30.05S
MISSOULA       CLEAR     30  25  81 SE3       30.07S
BUTTE          CLEAR     26  20  77 SE3       30.04S
MULLAN PASS    PTCLDY    23  21  92 S8        29.96F WCI  14
ANACONDA         N/A     27  19  74 S6        30.04F WCI  20
DEER LODGE       N/A     25  19  80 W3        30.07S
EUREKA           N/A     28  23  80 CALM      30.05S
HAMILTON         N/A     32  25  74 S6        30.06F WCI  26
PLAINS           N/A     29  21  71 CALM      30.07S
RONAN            N/A     30  25  82 CALM      30.07F
$$

MTZ008-052>055-240900-
SOUTHWEST MONTANA

CITY           SKY/WX    TMP DP  RH WIND       PRES   REMARKS
BOZEMAN        CLEAR     32  24  72 S9        30.04S WCI  24
DILLON         CLEAR     27  20  75 S8        30.03R WCI  19
W YELLOWSTONE  CLEAR     19  18  93 CALM      30.08R
ENNIS          CLEAR     30  21  69 SE7       30.09S WCI  23
THREE FORKS      N/A     27   1  32 CALM      30.03S
$$

MTZ009-010-012-014-046-048-049-054-240900-
EAST SLOPES AND CENTRAL MONTANA

CITY           SKY/WX    TMP DP  RH WIND       PRES   REMARKS
CUT BANK       CLEAR     28  21  75 W9        29.97F WCI  19
GREAT FALLS    CLEAR     30  17  58 SE3       30.00F
MALMSTROM AFB  CLEAR     26  20  77 S8        30.01F WCI  18
HELENA         CLEAR     34  23  64 CALM      30.04R
AUGUSTA          N/A     32  17  54 W7        29.99R WCI  25
BOWMANS CRNR     N/A     32  20  62 S8        29.99R WCI  24
CHOTEAU          N/A     34  19  55 MISG      30.01S
CONRAD           N/A     22  22 100 S2        30.01S
FAIRFIELD        N/A     28  18  64 S9        30.00R WCI  20
POWER            N/A     23  17  77 SW3       30.00S
RAYNESFORD       N/A     28  19  70 CALM      30.02R
$$

MTZ011-013-016-021-045-047-050-051-240900-
NORTH CENTRAL MONTANA

CITY           SKY/WX    TMP DP  RH WIND       PRES   REMARKS
HAVRE          CLEAR     33  25  72 W3        30.00R
LEWISTOWN      CLEAR     28  20  71 SW9       30.02S WCI  19
N BAR RANCH      N/A     37  19  48 SW3       30.04S
CHINOOK          N/A     30  25  80 CALM      30.00R
DENTON           N/A     29  21  73 W17G23    29.99R WCI  17
FORT BENTON      N/A     34  21  60 MISG      30.03S
GEYSER           N/A     33  20  59 SW12      30.01R WCI  24
GRASS RANGE      N/A     32  22  66 W12       29.98S WCI  23
STANFORD         N/A     28  19  71 SE3       30.01S
WINIFRED         N/A     32  23  68 S7        30.01R WCI  26
$$

MTZ017>020-022>027-061-062-240900-
NORTHEAST MONTANA

CITY           SKY/WX    TMP DP  RH WIND       PRES   REMARKS
GLASGOW        CLEAR     35  27  72 CALM      29.95S
JORDAN           N/A     30  27  88 W8        29.97S WCI  22
SIDNEY         CLEAR     36  32  85 N9        29.95R WCI  29
WOLF POINT     CLEAR     34  31  88 CALM      29.96S
MALTA          CLEAR     32  28  86 W3        29.98R
PLENTYWOOD       N/A     34  30  86 N8        29.97R WCI  27
POPLAR           N/A     34  30  86 N7        29.96S VSB 1   WCI  28
SCOBEY           N/A     28  20  72 CALM      29.94
$$

MTZ028>42-056>058-240900-
SOUTHCENTRAL AND SOUTHEAST MONTANA

CITY           SKY/WX    TMP DP  RH WIND       PRES   REMARKS
BAKER          PTCLDY    36  34  92 SW8       29.97R WCI  30
BILLINGS       PTCLDY    40  34  79 CALM      30.00R
LIVINGSTON     CLEAR     30  22  72 NW5       30.03S
MILES CITY     CLEAR     37  30  75 W9        29.96R WCI  30
BIG TIMBER     CLEAR     34  23  64 W12       30.06R WCI  25
EKALAKA          N/A     39  35  85 SW1       29.97
FORSYTH          N/A     43  37  81 SW5       29.98R
HARLOWTON        N/A     31  22  68 W12       30.02S WCI  22
LAUREL           N/A     34  22  61 CALM      29.99F
$$

REGIONAL REPORTS...DAKOTAS

CITY           SKY/WX    TMP DP  RH WIND       PRES   REMARKS
WILLISTON      CLEAR     30  28  92 N8        29.94F WCI  22
MINOT          CLEAR     31  27  85 CALM      30.00R
DICKINSON      CLEAR     35  34  96 N3        29.94R FOG
BEACH            N/A    N/A N/A N/A MISG        N/A
TIOGA            N/A     28  28 100 CALM      29.94F FOG
WATFORD CITY     N/A     30  32 100 SE6       29.97R WCI  24
BISMARCK       CLOUDY    33  31  92 NW6       29.99R WCI  28
GRAND FORKS    CLOUDY    33  32  96 N12       29.95R WCI  24
FARGO          CLOUDY    35  34  96 NW7       29.93R FOG     WCI  29
BUFFALO SD       N/A     36  34  92 W10       29.91R WCI  28
RAPID CITY     CLOUDY    41  37  86 NW12      29.98R
$$

REGIONAL REPORTS...WYOMING/IDAHO/WASHINGTON

CITY           SKY/WX    TMP DP  RH WIND       PRES   REMARKS
GILLETTE       CLEAR     34  33  96 SW3       30.00R
SHERIDAN       CLEAR     34  30  85 CALM      30.01R
BUFFALO WY     CLEAR     35  27  72 W6        30.02R WCI  30
CODY           CLOUDY    40  32  73 SW6       30.04R
YELLOWSTONE LA   N/A     20  18  92 CALM      30.10R
IDAHO FALLS    CLEAR     38  24  57 SW14      30.09R WCI  30
SALMON         CLEAR     28  21  74 CALM      30.05R
BOISE          MOCLDY    45  25  45 SE15      30.04F
SPOKANE        CLOUDY    38  28  67 E3        29.96F
$$

REGIONAL REPORTS...ALBERTA

CITY           SKY/WX    TMP DP  RH WIND       PRES   REMARKS
EDMONTON       PTCLDY    28  23  80 S7        29.96S WCI  21
CALGARY        MOCLDY    30  23  74 CALM      29.94F
LETHBRIDGE     CLEAR     27  21  80 SW8       29.97S WCI  18
MEDICINE HAT   CLEAR     34  28  80 E5        29.96R
WATERTON GATE    N/A     36  18  48 SW14G23     N/A  WCI  27
CARDSTON         N/A     27  18  69 S3          N/A
MILK RIVER       N/A     28  23  80 W8          N/A  WCI  20
ONEFOUR          N/A     34  23  64 NW14        N/A  WCI  24
$$

REGIONAL REPORTS...SASKATCHEWAN

CITY           SKY/WX    TMP DP  RH WIND       PRES   REMARKS
SWIFT CURRENT  CLEAR     28  27  93 E12       29.96S WCI  18
REGINA         CLEAR     27  23  86 NE8       30.02S WCI  18
SASKATOON      CLEAR     23  19  86 E5        30.09R
CYPRESS HILLS    N/A     36  19  51 NW1         N/A
VAL MARIE        N/A     27  25  93 N1          N/A
ROCKGLEN         N/A     32  28  86 NE2         N/A
ASSINIBOIA       N/A     10   9  92 S3          N/A
$$




USA.gov is the U.S. government's official web portal to all federal, state and local government web resources and services.